Year,Month,Day,Hour,Minute,Value (Times are PST for temperature in C)
2019,04,01,00,00,6.40
2019,04,01,00,01,6.40
2019,04,01,00,02,6.40
2019,04,01,00,03,6.40
2019,04,01,00,04,6.40
2019,04,01,00,05,6.40
2019,04,01,00,06,6.30
2019,04,01,00,07,6.30
2019,04,01,00,08,6.30
2019,04,01,00,09,6.30
2019,04,01,00,10,6.20
2019,04,01,00,11,6.20
2019,04,01,00,12,6.20
2019,04,01,00,13,6.20
2019,04,01,00,14,6.20
2019,04,01,00,15,6.20
2019,04,01,00,16,6.10
2019,04,01,00,17,6.10
2019,04,01,00,18,6.10
2019,04,01,00,19,6.10
2019,04,01,00,20,6.10
2019,04,01,00,21,6.10
2019,04,01,00,22,6.10
2019,04,01,00,23,6.10
2019,04,01,00,24,6.00
2019,04,01,00,25,6.00
2019,04,01,00,26,6.00
2019,04,01,00,27,6.00
2019,04,01,00,28,6.00
2019,04,01,00,29,6.00
2019,04,01,00,30,6.00
2019,04,01,00,31,5.90
2019,04,01,00,32,6.00
2019,04,01,00,33,5.90
2019,04,01,00,34,5.90
2019,04,01,00,35,6.00
2019,04,01,00,36,5.90
2019,04,01,00,37,5.90
2019,04,01,00,38,5.90
2019,04,01,00,39,5.90
2019,04,01,00,40,5.80
2019,04,01,00,41,5.80
2019,04,01,00,42,5.80
2019,04,01,00,43,5.80
2019,04,01,00,44,5.80
2019,04,01,00,45,5.70
2019,04,01,00,46,5.70
2019,04,01,00,47,5.70
2019,04,01,00,48,5.70
2019,04,01,00,49,5.70
2019,04,01,00,50,5.70
2019,04,01,00,51,5.70
2019,04,01,00,52,5.70
2019,04,01,00,53,5.70
2019,04,01,00,54,5.70
2019,04,01,00,55,5.60
2019,04,01,00,56,5.60
2019,04,01,00,57,5.60
2019,04,01,00,58,5.60
2019,04,01,00,59,5.50
2019,04,01,01,00,5.50
2019,04,01,01,01,5.50
2019,04,01,01,02,5.50
2019,04,01,01,03,5.50
2019,04,01,01,04,5.50
2019,04,01,01,05,5.40
2019,04,01,01,06,5.40
2019,04,01,01,07,5.40
2019,04,01,01,08,5.40
2019,04,01,01,09,5.40
2019,04,01,01,10,5.40
2019,04,01,01,11,5.40
2019,04,01,01,12,5.40
2019,04,01,01,13,5.40
2019,04,01,01,14,5.40
2019,04,01,01,15,5.40
2019,04,01,01,16,5.40
2019,04,01,01,17,5.40
2019,04,01,01,18,5.40
2019,04,01,01,19,5.40
2019,04,01,01,20,5.40
2019,04,01,01,21,5.40
2019,04,01,01,22,5.40
2019,04,01,01,23,5.40
2019,04,01,01,24,5.30
2019,04,01,01,25,5.30
2019,04,01,01,26,5.30
2019,04,01,01,27,5.30
2019,04,01,01,28,5.30
2019,04,01,01,29,5.30
2019,04,01,01,30,5.30
2019,04,01,01,31,5.30
2019,04,01,01,32,5.30
2019,04,01,01,33,5.20
2019,04,01,01,34,5.20
2019,04,01,01,35,5.20
2019,04,01,01,36,5.20
2019,04,01,01,37,5.20
2019,04,01,01,38,5.20
2019,04,01,01,39,5.20
2019,04,01,01,40,5.20
2019,04,01,01,41,5.20
2019,04,01,01,42,5.20
2019,04,01,01,43,5.20
2019,04,01,01,44,5.20
2019,04,01,01,45,5.20
2019,04,01,01,46,5.20
2019,04,01,01,47,5.20
2019,04,01,01,48,5.20
2019,04,01,01,49,5.20
2019,04,01,01,50,5.10
2019,04,01,01,51,5.10
2019,04,01,01,52,5.10
2019,04,01,01,53,5.10
2019,04,01,01,54,5.10
2019,04,01,01,55,5.10
2019,04,01,01,56,5.10
2019,04,01,01,57,5.10
2019,04,01,01,58,5.10
2019,04,01,01,59,5.10
2019,04,01,02,00,5.10
2019,04,01,02,01,5.10
2019,04,01,02,02,5.10
2019,04,01,02,03,5.10
2019,04,01,02,04,5.10
2019,04,01,02,05,5.10
2019,04,01,02,06,5.10
2019,04,01,02,07,5.10
2019,04,01,02,08,5.10
2019,04,01,02,09,5.10
2019,04,01,02,10,5.00
2019,04,01,02,11,5.00
2019,04,01,02,12,5.00
2019,04,01,02,13,5.00
2019,04,01,02,14,4.90
2019,04,01,02,15,4.90
2019,04,01,02,16,4.90
2019,04,01,02,17,4.90
2019,04,01,02,18,4.90
2019,04,01,02,19,4.90
2019,04,01,02,20,4.90
2019,04,01,02,21,4.90
2019,04,01,02,22,4.90
2019,04,01,02,23,4.80
2019,04,01,02,24,4.80
2019,04,01,02,25,4.80
2019,04,01,02,26,4.80
2019,04,01,02,27,4.80
2019,04,01,02,28,4.90
2019,04,01,02,29,4.90
2019,04,01,02,30,4.90
2019,04,01,02,31,4.90
2019,04,01,02,32,4.90
2019,04,01,02,33,4.90
2019,04,01,02,34,5.00
2019,04,01,02,35,4.90
2019,04,01,02,36,4.90
2019,04,01,02,37,4.90
2019,04,01,02,38,4.90
2019,04,01,02,39,4.90
2019,04,01,02,40,4.90
2019,04,01,02,41,4.90
2019,04,01,02,42,4.90
2019,04,01,02,43,4.80
2019,04,01,02,44,4.80
2019,04,01,02,45,4.80
2019,04,01,02,46,4.80
2019,04,01,02,47,4.80
2019,04,01,02,48,4.80
2019,04,01,02,49,4.80
2019,04,01,02,50,4.80
2019,04,01,02,51,4.80
2019,04,01,02,52,4.80
2019,04,01,02,53,4.80
2019,04,01,02,54,4.80
2019,04,01,02,55,4.80
2019,04,01,02,56,4.80
2019,04,01,02,57,4.80
2019,04,01,02,58,4.80
2019,04,01,02,59,4.80
2019,04,01,03,00,4.80
2019,04,01,03,01,4.80
2019,04,01,03,02,4.80
2019,04,01,03,03,4.80
2019,04,01,03,04,4.80
2019,04,01,03,05,4.80
2019,04,01,03,06,4.80
2019,04,01,03,07,4.80
2019,04,01,03,08,4.80
2019,04,01,03,09,4.80
2019,04,01,03,10,4.80
2019,04,01,03,11,4.80
2019,04,01,03,12,4.80
2019,04,01,03,13,4.80
2019,04,01,03,14,4.80
2019,04,01,03,15,4.80
2019,04,01,03,16,4.70
2019,04,01,03,17,4.70
2019,04,01,03,18,4.70
2019,04,01,03,19,4.70
2019,04,01,03,20,4.70
2019,04,01,03,21,4.70
2019,04,01,03,22,4.70
2019,04,01,03,23,4.70
2019,04,01,03,24,4.70
2019,04,01,03,25,4.70
2019,04,01,03,26,4.70
2019,04,01,03,27,4.70
2019,04,01,03,28,4.70
2019,04,01,03,29,4.70
2019,04,01,03,30,4.70
2019,04,01,03,31,4.70
2019,04,01,03,32,4.70
2019,04,01,03,33,4.70
2019,04,01,03,34,4.70
2019,04,01,03,35,4.70
2019,04,01,03,36,4.70
2019,04,01,03,37,4.70
2019,04,01,03,38,4.70
2019,04,01,03,39,4.60
2019,04,01,03,40,4.60
2019,04,01,03,41,4.60
2019,04,01,03,42,4.60
2019,04,01,03,43,4.60
2019,04,01,03,44,4.60
2019,04,01,03,45,4.60
2019,04,01,03,46,4.60
2019,04,01,03,47,4.60
2019,04,01,03,48,4.60
2019,04,01,03,49,4.60
2019,04,01,03,50,4.60
2019,04,01,03,51,4.50
2019,04,01,03,52,4.50
2019,04,01,03,53,4.50
2019,04,01,03,54,4.50
2019,04,01,03,55,4.50
2019,04,01,03,56,4.40
2019,04,01,03,57,4.50
2019,04,01,03,58,4.40
2019,04,01,03,59,4.40
2019,04,01,04,00,4.40
2019,04,01,04,01,4.40
2019,04,01,04,02,4.40
2019,04,01,04,03,4.40
2019,04,01,04,04,4.40
2019,04,01,04,05,4.40
2019,04,01,04,06,4.40
2019,04,01,04,07,4.40
2019,04,01,04,08,4.40
2019,04,01,04,09,4.40
2019,04,01,04,10,4.40
2019,04,01,04,11,4.40
2019,04,01,04,12,4.40
2019,04,01,04,13,4.40
2019,04,01,04,14,4.40
2019,04,01,04,15,4.40
2019,04,01,04,16,4.40
2019,04,01,04,17,4.40
2019,04,01,04,18,4.40
2019,04,01,04,19,4.40
2019,04,01,04,20,4.40
2019,04,01,04,21,4.40
2019,04,01,04,22,4.30
2019,04,01,04,23,4.30
2019,04,01,04,24,4.30
2019,04,01,04,25,4.30
2019,04,01,04,26,4.30
2019,04,01,04,27,4.30
2019,04,01,04,28,4.30
2019,04,01,04,29,4.30
2019,04,01,04,30,4.20
2019,04,01,04,31,4.20
2019,04,01,04,32,4.20
2019,04,01,04,33,4.20
2019,04,01,04,34,4.20
2019,04,01,04,35,4.20
2019,04,01,04,36,4.20
2019,04,01,04,37,4.10
2019,04,01,04,38,4.10
2019,04,01,04,39,4.10
2019,04,01,04,40,4.10
2019,04,01,04,41,4.10
2019,04,01,04,42,4.20
2019,04,01,04,43,4.20
2019,04,01,04,44,4.20
2019,04,01,04,45,4.20
2019,04,01,04,46,4.20
2019,04,01,04,47,4.20
2019,04,01,04,48,4.20
2019,04,01,04,49,4.20
2019,04,01,04,50,4.20
2019,04,01,04,51,4.20
2019,04,01,04,52,4.20
2019,04,01,04,53,4.20
2019,04,01,04,54,4.20
2019,04,01,04,55,4.20
2019,04,01,04,56,4.20
2019,04,01,04,57,4.10
2019,04,01,04,58,4.10
2019,04,01,04,59,4.10
2019,04,01,05,00,4.10
2019,04,01,05,01,4.10
2019,04,01,05,02,4.10
2019,04,01,05,03,4.20
2019,04,01,05,04,4.20
2019,04,01,05,05,4.20
2019,04,01,05,06,4.20
2019,04,01,05,07,4.30
2019,04,01,05,08,4.30
2019,04,01,05,09,4.30
2019,04,01,05,10,4.30
2019,04,01,05,11,4.40
2019,04,01,05,12,4.40
2019,04,01,05,13,4.50
2019,04,01,05,14,4.50
2019,04,01,05,15,4.50
2019,04,01,05,16,4.50
2019,04,01,05,17,4.60
2019,04,01,05,18,4.60
2019,04,01,05,19,4.60
2019,04,01,05,20,4.60
2019,04,01,05,21,4.60
2019,04,01,05,22,4.60
2019,04,01,05,23,4.60
2019,04,01,05,24,4.60
2019,04,01,05,25,4.60
2019,04,01,05,26,4.60
2019,04,01,05,27,4.50
2019,04,01,05,28,4.50
2019,04,01,05,29,4.50
2019,04,01,05,30,4.50
2019,04,01,05,31,4.60
2019,04,01,05,32,4.60
2019,04,01,05,33,4.60
2019,04,01,05,34,4.60
2019,04,01,05,35,4.60
2019,04,01,05,36,4.70
2019,04,01,05,37,4.70
2019,04,01,05,38,4.70
2019,04,01,05,39,4.70
2019,04,01,05,40,4.70
2019,04,01,05,41,4.80
2019,04,01,05,42,4.80
2019,04,01,05,43,4.80
2019,04,01,05,44,4.90
2019,04,01,05,45,4.90
2019,04,01,05,46,4.90
2019,04,01,05,47,4.90
2019,04,01,05,48,5.00
2019,04,01,05,49,5.10
2019,04,01,05,50,5.20
2019,04,01,05,51,5.30
2019,04,01,05,52,5.50
2019,04,01,05,53,5.70
2019,04,01,05,54,5.90
2019,04,01,05,55,6.20
2019,04,01,05,56,6.40
2019,04,01,05,57,6.50
2019,04,01,05,58,6.60
2019,04,01,05,59,6.70
2019,04,01,06,00,6.70
2019,04,01,06,01,6.80
2019,04,01,06,02,6.90
2019,04,01,06,03,6.90
2019,04,01,06,04,6.90
2019,04,01,06,05,7.00
2019,04,01,06,06,7.00
2019,04,01,06,07,7.00
2019,04,01,06,08,7.00
2019,04,01,06,09,7.00
2019,04,01,06,10,7.00
2019,04,01,06,11,6.90
2019,04,01,06,12,6.90
2019,04,01,06,13,6.90
2019,04,01,06,14,6.80
2019,04,01,06,15,6.90
2019,04,01,06,16,6.90
2019,04,01,06,17,7.00
2019,04,01,06,18,7.00
2019,04,01,06,19,7.10
2019,04,01,06,20,7.10
2019,04,01,06,21,7.20
2019,04,01,06,22,7.20
2019,04,01,06,23,7.30
2019,04,01,06,24,7.30
2019,04,01,06,25,7.30
2019,04,01,06,26,7.30
2019,04,01,06,27,7.30
2019,04,01,06,28,7.30
2019,04,01,06,29,7.30
2019,04,01,06,30,7.30
2019,04,01,06,31,7.30
2019,04,01,06,32,7.40
2019,04,01,06,33,7.40
2019,04,01,06,34,7.40
2019,04,01,06,35,7.30
2019,04,01,06,36,7.30
2019,04,01,06,37,7.30
2019,04,01,06,38,7.30
2019,04,01,06,39,7.30
2019,04,01,06,40,7.30
2019,04,01,06,41,7.30
2019,04,01,06,42,7.30
2019,04,01,06,43,7.40
2019,04,01,06,44,7.40
2019,04,01,06,45,7.40
2019,04,01,06,46,7.40
2019,04,01,06,47,7.40
2019,04,01,06,48,7.40
2019,04,01,06,49,7.30
2019,04,01,06,50,7.30
2019,04,01,06,51,7.30
2019,04,01,06,52,7.30
2019,04,01,06,53,7.20
2019,04,01,06,54,7.20
2019,04,01,06,55,7.20
2019,04,01,06,56,7.10
2019,04,01,06,57,7.10
2019,04,01,06,58,7.00
2019,04,01,06,59,7.00
2019,04,01,07,00,6.90
2019,04,01,07,01,6.80
2019,04,01,07,02,6.80
2019,04,01,07,03,6.70
2019,04,01,07,04,6.70
2019,04,01,07,05,6.60
2019,04,01,07,06,6.60
2019,04,01,07,07,6.50
2019,04,01,07,08,6.50
2019,04,01,07,09,6.40
2019,04,01,07,10,6.40
2019,04,01,07,11,6.30
2019,04,01,07,12,6.30
2019,04,01,07,13,6.20
2019,04,01,07,14,6.20
2019,04,01,07,15,6.20
2019,04,01,07,16,6.20
2019,04,01,07,17,6.10
2019,04,01,07,18,6.10
2019,04,01,07,19,6.10
2019,04,01,07,20,6.10
2019,04,01,07,21,6.10
2019,04,01,07,22,6.10
2019,04,01,07,23,6.10
2019,04,01,07,24,6.20
2019,04,01,07,25,6.20
2019,04,01,07,26,6.30
2019,04,01,07,27,6.30
2019,04,01,07,28,6.40
2019,04,01,07,29,6.50
2019,04,01,07,30,6.50
2019,04,01,07,31,6.60
2019,04,01,07,32,6.70
2019,04,01,07,33,6.70
2019,04,01,07,34,6.80
2019,04,01,07,35,6.90
2019,04,01,07,36,7.10
2019,04,01,07,37,7.20
2019,04,01,07,38,7.30
2019,04,01,07,39,7.40
2019,04,01,07,40,7.40
2019,04,01,07,41,7.50
2019,04,01,07,42,7.50
2019,04,01,07,43,7.60
2019,04,01,07,44,7.60
2019,04,01,07,45,7.70
2019,04,01,07,46,7.70
2019,04,01,07,47,7.70
2019,04,01,07,48,7.80
2019,04,01,07,49,7.80
2019,04,01,07,50,7.90
2019,04,01,07,51,7.90
2019,04,01,07,52,7.90
2019,04,01,07,53,7.90
2019,04,01,07,54,7.90
2019,04,01,07,55,7.90
2019,04,01,07,56,7.90
2019,04,01,07,57,7.90
2019,04,01,07,58,7.90
2019,04,01,07,59,7.90
2019,04,01,08,00,7.90
2019,04,01,08,01,8.00
2019,04,01,08,02,8.00
2019,04,01,08,03,8.10
2019,04,01,08,04,8.10
2019,04,01,08,05,8.10
2019,04,01,08,06,8.10
2019,04,01,08,07,8.20
2019,04,01,08,08,8.20
2019,04,01,08,09,8.20
2019,04,01,08,10,8.30
2019,04,01,08,11,8.30
2019,04,01,08,12,8.40
2019,04,01,08,13,8.50
2019,04,01,08,14,8.60
2019,04,01,08,15,8.70
2019,04,01,08,16,8.80
2019,04,01,08,17,8.90
2019,04,01,08,18,8.90
2019,04,01,08,19,9.00
2019,04,01,08,20,9.10
2019,04,01,08,21,9.10
2019,04,01,08,22,9.20
2019,04,01,08,23,9.20
2019,04,01,08,24,9.30
2019,04,01,08,25,9.40
2019,04,01,08,26,9.50
2019,04,01,08,27,9.60
2019,04,01,08,28,9.70
2019,04,01,08,29,9.80
2019,04,01,08,30,9.90
2019,04,01,08,31,10.00
2019,04,01,08,32,10.10
2019,04,01,08,33,10.20
2019,04,01,08,34,10.40
2019,04,01,08,35,10.50
2019,04,01,08,36,10.60
2019,04,01,08,37,10.70
2019,04,01,08,38,10.70
2019,04,01,08,39,10.80
2019,04,01,08,40,10.90
2019,04,01,08,41,10.90
2019,04,01,08,42,11.00
2019,04,01,08,43,11.00
2019,04,01,08,44,11.10
2019,04,01,08,45,11.20
2019,04,01,08,46,11.20
2019,04,01,08,47,11.30
2019,04,01,08,48,11.30
2019,04,01,08,49,11.40
2019,04,01,08,50,11.50
2019,04,01,08,51,11.50
2019,04,01,08,52,11.60
2019,04,01,08,53,11.70
2019,04,01,08,54,11.70
2019,04,01,08,55,11.80
2019,04,01,08,56,11.90
2019,04,01,08,57,12.00
2019,04,01,08,58,12.00
2019,04,01,08,59,12.10
2019,04,01,09,00,12.20
2019,04,01,09,01,12.20
2019,04,01,09,02,12.30
2019,04,01,09,03,12.30
2019,04,01,09,04,12.40
2019,04,01,09,05,12.50
2019,04,01,09,06,12.50
2019,04,01,09,07,12.60
2019,04,01,09,08,12.60
2019,04,01,09,09,12.70
2019,04,01,09,10,12.70
2019,04,01,09,11,12.70
2019,04,01,09,12,12.80
2019,04,01,09,13,12.80
2019,04,01,09,14,12.80
2019,04,01,09,15,12.80
2019,04,01,09,16,12.90
2019,04,01,09,17,12.90
2019,04,01,09,18,13.00
2019,04,01,09,19,13.00
2019,04,01,09,20,13.00
2019,04,01,09,21,13.00
2019,04,01,09,22,13.00
2019,04,01,09,23,13.00
2019,04,01,09,24,13.00
2019,04,01,09,25,13.00
2019,04,01,09,26,13.00
2019,04,01,09,27,13.00
2019,04,01,09,28,13.00
2019,04,01,09,29,13.00
2019,04,01,09,30,13.10
2019,04,01,09,31,13.00
2019,04,01,09,32,13.00
2019,04,01,09,33,13.00
2019,04,01,09,34,13.00
2019,04,01,09,35,13.10
2019,04,01,09,36,13.10
2019,04,01,09,37,13.10
2019,04,01,09,38,13.10
2019,04,01,09,39,13.10
2019,04,01,09,40,13.10
2019,04,01,09,41,13.10
2019,04,01,09,42,13.20
2019,04,01,09,43,13.20
2019,04,01,09,44,13.20
2019,04,01,09,45,13.30
2019,04,01,09,46,13.30
2019,04,01,09,47,13.30
2019,04,01,09,48,13.30
2019,04,01,09,49,13.30
2019,04,01,09,50,13.30
2019,04,01,09,51,13.30
2019,04,01,09,52,13.30
2019,04,01,09,53,13.30
2019,04,01,09,54,13.30
2019,04,01,09,55,13.30
2019,04,01,09,56,13.40
2019,04,01,09,57,13.40
2019,04,01,09,58,13.50
2019,04,01,09,59,13.50
2019,04,01,10,00,13.50
2019,04,01,10,01,13.60
2019,04,01,10,02,13.60
2019,04,01,10,03,13.60
2019,04,01,10,04,13.60
2019,04,01,10,05,13.60
2019,04,01,10,06,13.60
2019,04,01,10,07,13.70
2019,04,01,10,08,13.70
2019,04,01,10,09,13.70
2019,04,01,10,10,13.70
2019,04,01,10,11,13.80
2019,04,01,10,12,13.80
2019,04,01,10,13,13.80
2019,04,01,10,14,13.80
2019,04,01,10,15,13.90
2019,04,01,10,16,13.90
2019,04,01,10,17,14.00
2019,04,01,10,18,14.00
2019,04,01,10,19,14.10
2019,04,01,10,20,14.20
2019,04,01,10,21,14.20
2019,04,01,10,22,14.20
2019,04,01,10,23,14.20
2019,04,01,10,24,14.20
2019,04,01,10,25,14.20
2019,04,01,10,26,14.30
2019,04,01,10,27,14.30
2019,04,01,10,28,14.30
2019,04,01,10,29,14.30
2019,04,01,10,30,14.40
2019,04,01,10,31,14.40
2019,04,01,10,32,14.40
2019,04,01,10,33,14.40
2019,04,01,10,34,14.40
2019,04,01,10,35,14.40
2019,04,01,10,36,14.50
2019,04,01,10,37,14.50
2019,04,01,10,38,14.60
2019,04,01,10,39,14.60
2019,04,01,10,40,14.60
2019,04,01,10,41,14.70
2019,04,01,10,42,14.80
2019,04,01,10,43,14.80
2019,04,01,10,44,14.90
2019,04,01,10,45,14.90
2019,04,01,10,46,14.90
2019,04,01,10,47,14.90
2019,04,01,10,48,14.90
2019,04,01,10,49,14.90
2019,04,01,10,50,14.90
2019,04,01,10,51,15.00
2019,04,01,10,52,15.00
2019,04,01,10,53,15.00
2019,04,01,10,54,15.10
2019,04,01,10,55,15.00
2019,04,01,10,56,15.00
2019,04,01,10,57,15.00
2019,04,01,10,58,15.00
2019,04,01,10,59,15.10
2019,04,01,11,00,15.10
2019,04,01,11,01,15.10
2019,04,01,11,02,15.20
2019,04,01,11,03,15.20
2019,04,01,11,04,15.20
2019,04,01,11,05,15.20
2019,04,01,11,06,15.20
2019,04,01,11,07,15.20
2019,04,01,11,08,15.20
2019,04,01,11,09,15.20
2019,04,01,11,10,15.20
2019,04,01,11,11,15.30
2019,04,01,11,12,15.20
2019,04,01,11,13,15.20
2019,04,01,11,14,15.20
2019,04,01,11,15,15.20
2019,04,01,11,16,15.20
2019,04,01,11,17,15.20
2019,04,01,11,18,15.20
2019,04,01,11,19,15.30
2019,04,01,11,20,15.30
2019,04,01,11,21,15.40
2019,04,01,11,22,15.50
2019,04,01,11,23,15.60
2019,04,01,11,24,15.60
2019,04,01,11,25,15.60
2019,04,01,11,26,15.60
2019,04,01,11,27,15.60
2019,04,01,11,28,15.60
2019,04,01,11,29,15.60
2019,04,01,11,30,15.60
2019,04,01,11,31,15.70
2019,04,01,11,32,15.70
2019,04,01,11,33,15.60
2019,04,01,11,34,15.60
2019,04,01,11,35,15.60
2019,04,01,11,36,15.50
2019,04,01,11,37,15.50
2019,04,01,11,38,15.40
2019,04,01,11,39,15.40
2019,04,01,11,40,15.40
2019,04,01,11,41,15.40
2019,04,01,11,42,15.40
2019,04,01,11,43,15.30
2019,04,01,11,44,15.30
2019,04,01,11,45,15.30
2019,04,01,11,46,15.30
2019,04,01,11,47,15.30
2019,04,01,11,48,15.30
2019,04,01,11,49,15.30
2019,04,01,11,50,15.40
2019,04,01,11,51,15.50
2019,04,01,11,52,15.60
2019,04,01,11,53,15.70
2019,04,01,11,54,15.80
2019,04,01,11,55,15.80
2019,04,01,11,56,15.80
2019,04,01,11,57,15.70
2019,04,01,11,58,15.70
2019,04,01,11,59,15.70
2019,04,01,12,00,15.80
2019,04,01,12,01,15.70
2019,04,01,12,02,15.70
2019,04,01,12,03,15.70
2019,04,01,12,04,15.80
2019,04,01,12,05,15.80
2019,04,01,12,06,15.80
2019,04,01,12,07,15.70
2019,04,01,12,08,15.70
2019,04,01,12,09,15.80
2019,04,01,12,10,15.80
2019,04,01,12,11,15.90
2019,04,01,12,12,15.90
2019,04,01,12,13,15.90
2019,04,01,12,14,15.90
2019,04,01,12,15,15.90
2019,04,01,12,16,15.90
2019,04,01,12,17,15.90
2019,04,01,12,18,15.80
2019,04,01,12,19,15.80
2019,04,01,12,20,15.80
2019,04,01,12,21,15.80
2019,04,01,12,22,15.90
2019,04,01,12,23,15.80
2019,04,01,12,24,15.80
2019,04,01,12,25,15.80
2019,04,01,12,26,15.80
2019,04,01,12,27,15.80
2019,04,01,12,28,15.80
2019,04,01,12,29,15.80
2019,04,01,12,30,15.80
2019,04,01,12,31,15.80
2019,04,01,12,32,15.90
2019,04,01,12,33,15.90
2019,04,01,12,34,15.90
2019,04,01,12,35,15.90
2019,04,01,12,36,15.90
2019,04,01,12,37,15.90
2019,04,01,12,38,16.00
2019,04,01,12,39,16.00
2019,04,01,12,40,15.90
2019,04,01,12,41,15.90
2019,04,01,12,42,15.90
2019,04,01,12,43,15.90
2019,04,01,12,44,15.90
2019,04,01,12,45,16.00
2019,04,01,12,46,16.10
2019,04,01,12,47,16.10
2019,04,01,12,48,16.20
2019,04,01,12,49,16.10
2019,04,01,12,50,16.10
2019,04,01,12,51,16.10
2019,04,01,12,52,16.20
2019,04,01,12,53,16.20
2019,04,01,12,54,16.30
2019,04,01,12,55,16.40
2019,04,01,12,56,16.40
2019,04,01,12,57,16.50
2019,04,01,12,58,16.40
2019,04,01,12,59,16.40
2019,04,01,13,00,16.40
2019,04,01,13,01,16.30
2019,04,01,13,02,16.30
2019,04,01,13,03,16.30
2019,04,01,13,04,16.30
2019,04,01,13,05,16.30
2019,04,01,13,06,16.30
2019,04,01,13,07,16.30
2019,04,01,13,08,16.30
2019,04,01,13,09,16.30
2019,04,01,13,10,16.40
2019,04,01,13,11,16.50
2019,04,01,13,12,16.50
2019,04,01,13,13,16.50
2019,04,01,13,14,16.50
2019,04,01,13,15,16.50
2019,04,01,13,16,16.50
2019,04,01,13,17,16.60
2019,04,01,13,18,16.60
2019,04,01,13,19,16.60
2019,04,01,13,20,16.60
2019,04,01,13,21,16.60
2019,04,01,13,22,16.60
2019,04,01,13,23,16.60
2019,04,01,13,24,16.60
2019,04,01,13,25,16.60
2019,04,01,13,26,16.60
2019,04,01,13,27,16.60
2019,04,01,13,28,16.70
2019,04,01,13,29,16.70
2019,04,01,13,30,16.70
2019,04,01,13,31,16.70
2019,04,01,13,32,16.70
2019,04,01,13,33,16.70
2019,04,01,13,34,16.70
2019,04,01,13,35,16.70
2019,04,01,13,36,16.80
2019,04,01,13,37,16.80
2019,04,01,13,38,16.90
2019,04,01,13,39,16.90
2019,04,01,13,40,16.90
2019,04,01,13,41,16.90
2019,04,01,13,42,17.00
2019,04,01,13,43,17.00
2019,04,01,13,44,16.90
2019,04,01,13,45,16.90
2019,04,01,13,46,17.00
2019,04,01,13,47,17.00
2019,04,01,13,48,17.00
2019,04,01,13,49,17.00
2019,04,01,13,50,16.90
2019,04,01,13,51,16.90
2019,04,01,13,52,16.90
2019,04,01,13,53,16.90
2019,04,01,13,54,16.80
2019,04,01,13,55,16.80
2019,04,01,13,56,16.80
2019,04,01,13,57,16.80
2019,04,01,13,58,16.90
2019,04,01,13,59,17.00
2019,04,01,14,00,17.00
2019,04,01,14,01,17.10
2019,04,01,14,02,17.10
2019,04,01,14,03,17.10
2019,04,01,14,04,17.10
2019,04,01,14,05,17.10
2019,04,01,14,06,17.10
2019,04,01,14,07,17.00
2019,04,01,14,08,17.10
2019,04,01,14,09,17.10
2019,04,01,14,10,17.10
2019,04,01,14,11,17.10
2019,04,01,14,12,17.20
2019,04,01,14,13,17.20
2019,04,01,14,14,17.20
2019,04,01,14,15,17.20
2019,04,01,14,16,17.20
2019,04,01,14,17,17.20
2019,04,01,14,18,17.20
2019,04,01,14,19,17.20
2019,04,01,14,20,17.30
2019,04,01,14,21,17.30
2019,04,01,14,22,17.30
2019,04,01,14,23,17.30
2019,04,01,14,24,17.30
2019,04,01,14,25,17.30
2019,04,01,14,26,17.30
2019,04,01,14,27,17.30
2019,04,01,14,28,17.30
2019,04,01,14,29,17.30
2019,04,01,14,30,17.30
2019,04,01,14,31,17.30
2019,04,01,14,32,17.30
2019,04,01,14,33,17.30
2019,04,01,14,34,17.30
2019,04,01,14,35,17.20
2019,04,01,14,36,17.20
2019,04,01,14,37,17.20
2019,04,01,14,38,17.20
2019,04,01,14,39,17.20
2019,04,01,14,40,17.20
2019,04,01,14,41,17.30
2019,04,01,14,42,17.30
2019,04,01,14,43,17.40
2019,04,01,14,44,17.50
2019,04,01,14,45,17.60
2019,04,01,14,46,17.60
2019,04,01,14,47,17.60
2019,04,01,14,48,17.60
2019,04,01,14,49,17.60
2019,04,01,14,50,17.60
2019,04,01,14,51,17.60
2019,04,01,14,52,17.60
2019,04,01,14,53,17.60
2019,04,01,14,54,17.60
2019,04,01,14,55,17.60
2019,04,01,14,56,17.50
2019,04,01,14,57,17.50
2019,04,01,14,58,17.60
2019,04,01,14,59,17.60
2019,04,01,15,00,17.70
2019,04,01,15,01,17.70
2019,04,01,15,02,17.70
2019,04,01,15,03,17.70
2019,04,01,15,04,17.70
2019,04,01,15,05,17.80
2019,04,01,15,06,17.80
2019,04,01,15,07,17.90
2019,04,01,15,08,18.00
2019,04,01,15,09,18.00
2019,04,01,15,10,18.10
2019,04,01,15,11,18.10
2019,04,01,15,12,18.10
2019,04,01,15,13,18.10
2019,04,01,15,14,18.10
2019,04,01,15,15,18.20
2019,04,01,15,16,18.20
2019,04,01,15,17,18.30
2019,04,01,15,18,18.30
2019,04,01,15,19,18.30
2019,04,01,15,20,18.30
2019,04,01,15,21,18.30
2019,04,01,15,22,18.30
2019,04,01,15,23,18.30
2019,04,01,15,24,18.20
2019,04,01,15,25,18.20
2019,04,01,15,26,18.20
2019,04,01,15,27,18.20
2019,04,01,15,28,18.20
2019,04,01,15,29,18.20
2019,04,01,15,30,18.20
2019,04,01,15,31,18.20
2019,04,01,15,32,18.20
2019,04,01,15,33,18.20
2019,04,01,15,34,18.20
2019,04,01,15,35,18.30
2019,04,01,15,36,18.30
2019,04,01,15,37,18.30
2019,04,01,15,38,18.30
2019,04,01,15,39,18.30
2019,04,01,15,40,18.20
2019,04,01,15,41,18.10
2019,04,01,15,42,18.10
2019,04,01,15,43,18.10
2019,04,01,15,44,18.10
2019,04,01,15,45,18.10
2019,04,01,15,46,18.10
2019,04,01,15,47,18.20
2019,04,01,15,48,18.20
2019,04,01,15,49,18.20
2019,04,01,15,50,18.20
2019,04,01,15,51,18.20
2019,04,01,15,52,18.30
2019,04,01,15,53,18.30
2019,04,01,15,54,18.40
2019,04,01,15,55,18.40
2019,04,01,15,56,18.50
2019,04,01,15,57,18.50
2019,04,01,15,58,18.60
2019,04,01,15,59,18.60
2019,04,01,16,00,18.60
2019,04,01,16,01,18.70
2019,04,01,16,02,18.70
2019,04,01,16,03,18.70
2019,04,01,16,04,18.70
2019,04,01,16,05,18.70
2019,04,01,16,06,18.80
2019,04,01,16,07,18.90
2019,04,01,16,08,18.90
2019,04,01,16,09,18.90
2019,04,01,16,10,18.90
2019,04,01,16,11,18.90
2019,04,01,16,12,19.00
2019,04,01,16,13,19.00
2019,04,01,16,14,18.90
2019,04,01,16,15,18.90
2019,04,01,16,16,18.90
2019,04,01,16,17,18.80
2019,04,01,16,18,18.80
2019,04,01,16,19,18.80
2019,04,01,16,20,18.80
2019,04,01,16,21,18.80
2019,04,01,16,22,18.80
2019,04,01,16,23,18.70
2019,04,01,16,24,18.70
2019,04,01,16,25,18.70
2019,04,01,16,26,18.70
2019,04,01,16,27,18.70
2019,04,01,16,28,18.70
2019,04,01,16,29,18.70
2019,04,01,16,30,18.70
2019,04,01,16,31,18.70
2019,04,01,16,32,18.70
2019,04,01,16,33,18.70
2019,04,01,16,34,18.70
2019,04,01,16,35,18.80
2019,04,01,16,36,18.80
2019,04,01,16,37,18.80
2019,04,01,16,38,18.90
2019,04,01,16,39,18.90
2019,04,01,16,40,18.90
2019,04,01,16,41,18.90
2019,04,01,16,42,18.80
2019,04,01,16,43,18.80
2019,04,01,16,44,18.80
2019,04,01,16,45,18.80
2019,04,01,16,46,18.80
2019,04,01,16,47,18.80
2019,04,01,16,48,18.80
2019,04,01,16,49,18.90
2019,04,01,16,50,18.90
2019,04,01,16,51,19.00
2019,04,01,16,52,19.00
2019,04,01,16,53,19.00
2019,04,01,16,54,19.00
2019,04,01,16,55,19.00
2019,04,01,16,56,18.90
2019,04,01,16,57,18.90
2019,04,01,16,58,18.90
2019,04,01,16,59,18.90
2019,04,01,17,00,18.90
2019,04,01,17,01,18.90
2019,04,01,17,02,18.90
2019,04,01,17,03,18.90
2019,04,01,17,04,18.90
2019,04,01,17,05,19.00
2019,04,01,17,06,19.00
2019,04,01,17,07,19.00
2019,04,01,17,08,19.10
2019,04,01,17,09,19.10
2019,04,01,17,10,19.10
2019,04,01,17,11,19.20
2019,04,01,17,12,19.20
2019,04,01,17,13,19.20
2019,04,01,17,14,19.20
2019,04,01,17,15,19.20
2019,04,01,17,16,19.20
2019,04,01,17,17,19.20
2019,04,01,17,18,19.20
2019,04,01,17,19,19.20
2019,04,01,17,20,19.20
2019,04,01,17,21,19.10
2019,04,01,17,22,19.10
2019,04,01,17,23,19.10
2019,04,01,17,24,19.10
2019,04,01,17,25,19.10
2019,04,01,17,26,19.10
2019,04,01,17,27,19.10
2019,04,01,17,28,19.10
2019,04,01,17,29,19.10
2019,04,01,17,30,19.10
2019,04,01,17,31,19.10
2019,04,01,17,32,19.10
2019,04,01,17,33,19.10
2019,04,01,17,34,19.10
2019,04,01,17,35,19.10
2019,04,01,17,36,19.10
2019,04,01,17,37,19.10
2019,04,01,17,38,19.10
2019,04,01,17,39,19.10
2019,04,01,17,40,19.10
2019,04,01,17,41,19.00